This is the latest recevied weather packets stored in our database for station/object SQ5LTL-2. If no packets are shown the sender has not sent any weather packets the latest 10 day(s).
| Time | Temp. | Humidity | Pressure | Rain* | Wind** | Luminosity | Snow |
|---|---|---|---|---|---|---|---|
| 1777705224 | 16.67° C | 53% | 1026.6 hPa | 0 mm | - | 308 W/m² | - |
| 1777704922 | 16.11° C | 54% | 1026.5 hPa | 0 mm | - | 302 W/m² | - |
| 1777704621 | 16.11° C | 54% | 1026.5 hPa | 0 mm | - | 288 W/m² | - |
| 1777704319 | 16.11° C | 55% | 1026.5 hPa | 0 mm | - | 299 W/m² | - |
| 1777704018 | 15.56° C | 57% | 1026.5 hPa | 0 mm | - | 287 W/m² | - |
| 1777703716 | 15.56° C | 57% | 1026.6 hPa | 0 mm | - | 266 W/m² | - |
| 1777703435 | 15° C | 58% | 1026.6 hPa | 0 mm | - | 257 W/m² | - |
| 1777703134 | 15° C | 60% | 1026.6 hPa | 0 mm | - | 247 W/m² | - |
| 1777702832 | 14.44° C | 61% | 1026.6 hPa | 0 mm | - | 237 W/m² | - |
| 1777702531 | 13.89° C | 63% | 1026.6 hPa | 0 mm | - | 227 W/m² | - |
| 1777702229 | 13.89° C | 63% | 1026.6 hPa | 0 mm | - | 213 W/m² | - |
| 1777701928 | 13.33° C | 64% | 1026.6 hPa | 0 mm | - | 201 W/m² | - |
| 1777701627 | 13.33° C | 64% | 1026.6 hPa | 0 mm | - | 193 W/m² | - |
| 1777701325 | 13.33° C | 65% | 1026.6 hPa | 0 mm | - | 184 W/m² | - |
| 1777701024 | 12.78° C | 67% | 1026.6 hPa | 0 mm | - | 175 W/m² | - |
| 1777700722 | 12.22° C | 68% | 1026.4 hPa | 0 mm | - | 164 W/m² | - |
| 1777700421 | 12.22° C | 68% | 1026.6 hPa | 0 mm | - | 155 W/m² | - |
| 1777700119 | 11.67° C | 70% | 1026.5 hPa | 0 mm | - | 147 W/m² | - |
| 1777699817 | 11.67° C | 71% | 1026.5 hPa | 0 mm | - | 138 W/m² | - |
| 1777699516 | 11.11° C | 73% | 1026.5 hPa | 0 mm | - | 130 W/m² | - |
| 1777699234 | 10.56° C | 75% | 1026.4 hPa | 0 mm | - | 121 W/m² | - |
| 1777698933 | 10° C | 76% | 1026.5 hPa | 0 mm | - | 140 W/m² | - |
| 1777698633 | 10° C | 77% | 1026.5 hPa | 0 mm | - | 118 W/m² | - |
| 1777698331 | 9.44° C | 78% | 1026.5 hPa | 0 mm | - | 88 W/m² | - |
| 1777698028 | 9.44° C | 79% | 1026.4 hPa | 0 mm | - | 76 W/m² | - |
* Rain latest hour (hover to see other rain measurements)
** Current wind speed in m/s (hover to see current wind gust speed)